Location: Coopersdale
(40.3556°N, 78.9372°W)
Time: 03:39:21
(UTC+00:00)

Tiros 1 despin weight - Pass Details

Date: 20 January 2021
Orbit: 593 x 642 km, 48.2° (Epoch: 02 March)

Event Time Altitude Azimuth Distance (km) Brightness Sun altitude
Rises 20:37:15 0° 230° (SW) 2,878 ? 15.2°
Reaches altitude 10° 20:39:34 10° 228° (SW) 1,967 ? 14.9°
Maximum altitude 20:44:03 67° 146° (SE) 660 ? 14.3°
Drops below altitude 10° 20:48:29 10° 64° (ENE) 1,946 ? 13.7°
Sets 20:50:46 0° 62° (ENE) 2,844 ? 13.3°
